Location: Poprad
(49.0500°N, 20.3000°E)
Time: 07:40:55
(UTC+02:00)

PCSat - Visible Passes

Search period start: 22 April 2024 00:00
Search period end: 02 May 2024 00:00
Orbit: 783 x 792 km, 67.0° (Epoch: 21 April)

Date Brightness Start Highest point End Pass type
(mag) Time Alt. Az. Time Alt. Az. Time Alt. Az.
22 Apr 12.7 01:16:43 10° NNW 01:19:12 13° NNE 01:21:41 10° NE visible
22 Apr 11.5 02:59:35 10° NNW 03:04:22 30° NE 03:09:08 10° E visible
22 Apr 9.6 04:42:45 10° NW 04:48:07 64° WSW 04:53:27 10° SSE visible
22 Apr 11.3 21:11:23 10° WSW 21:16:21 35° NW 21:21:21 10° NNE visible
22 Apr 12.7 22:58:32 10° NW 23:01:21 14° NNW 23:04:09 10° NNE visible
23 Apr 12.8 00:45:05 10° NNW 00:47:11 12° N 00:49:16 10° NNE visible
23 Apr 11.8 02:28:03 10° NNW 02:32:32 25° NE 02:36:59 10° E visible
23 Apr 9.5 04:11:05 10° NW 04:16:32 84° WSW 04:21:57 10° SSE visible
23 Apr 10.9 20:39:25 10° WSW 20:44:36 44° NW 20:49:48 10° NNE visible
23 Apr 12.6 22:26:08 10° WNW 22:29:22 16° NNW 22:32:36 10° NNE visible
24 Apr 12.8 00:13:19 10° NNW 00:15:08 12° N 00:16:56 10° NNE visible
24 Apr 12.1 01:56:32 10° NNW 02:00:39 21° NNE 02:04:45 10° E visible
24 Apr 9.8 03:39:27 10° NNW 03:44:55 75° NE 03:50:19 10° SE visible
24 Apr 10.5 20:07:33 10° SW 20:12:52 56° NW 20:18:14 10° NNE visible
24 Apr 12.5 21:53:45 10° WNW 21:57:24 18° NNW 22:01:04 10° NNE visible
24 Apr 12.7 23:41:23 10° NNW 23:43:05 11° N 23:44:46 10° NNE visible
25 Apr 12.3 01:25:01 10° NNW 01:28:44 18° NNE 01:32:27 10° ENE visible
25 Apr 10.2 03:07:52 10° NNW 03:13:14 58° NE 03:18:35 10° SE visible
25 Apr 10.4 04:51:44 10° NW 04:56:16 27° WSW 05:00:45 10° SSW visible
25 Apr 12.3 21:21:27 10° W 21:25:29 21° NNW 21:29:33 10° NNE visible
25 Apr 12.7 23:09:15 10° NNW 23:11:01 11° N 23:12:48 10° NNE visible
26 Apr 12.4 00:53:29 10° NNW 00:56:47 16° NNE 01:00:04 10° ENE visible
26 Apr 10.6 02:36:18 10° NNW 02:41:32 46° NE 02:46:43 10° ESE visible
26 Apr 10.1 04:19:52 10° NW 04:24:48 37° WSW 04:29:42 10° S visible
26 Apr 12.1 20:49:11 10° W 20:53:36 25° NW 20:58:02 10° NNE visible
26 Apr 12.6 22:36:55 10° NNW 22:38:58 12° N 22:41:02 10° NNE visible
27 Apr 12.5 00:21:55 10° NNW 00:24:48 14° NNE 00:27:39 10° NE visible
27 Apr 11.1 02:04:45 10° NNW 02:09:46 36° NE 02:14:45 10° ESE visible
27 Apr 9.7 03:48:04 10° NW 03:53:18 49° WSW 03:58:28 10° S visible
27 Apr 11.8 20:17:02 10° W 20:21:45 30° NW 20:26:29 10° NNE visible
27 Apr 12.5 22:04:30 10° NW 22:06:57 13° NNW 22:09:22 10° NNE visible
27 Apr 12.5 23:50:20 10° NNW 23:52:47 13° NNE 23:55:13 10° NE visible
28 Apr 11.4 01:33:12 10° NNW 01:37:58 30° NE 01:42:41 10° E visible
28 Apr 9.5 03:16:21 10° NW 03:21:44 66° WSW 03:27:05 10° SSE visible
28 Apr 12.5 21:32:04 10° NW 21:34:55 14° NNW 21:37:46 10° NNE visible
28 Apr 12.5 23:18:41 10° NNW 23:20:44 12° N 23:22:48 10° NNE visible
29 Apr 11.7 01:01:41 10° NNW 01:06:07 25° NE 01:10:32 10° E visible
29 Apr 9.5 02:44:41 10° NW 02:50:08 86° WSW 02:55:34 10° SSE visible
29 Apr 11.1 04:29:38 10° WNW 04:32:41 15° WSW 04:35:44 10° SW visible
29 Apr 12.4 20:59:39 10° WNW 21:02:56 16° NNW 21:06:12 10° NNE visible
29 Apr 12.5 22:46:54 10° NNW 22:48:41 11° N 22:50:29 10° NNE visible
30 Apr 11.9 00:30:09 10° NNW 00:34:14 21° NNE 00:38:17 10° E visible
30 Apr 9.7 02:13:03 10° NNW 02:18:31 74° NE 02:23:49 10° SE visible
30 Apr 10.8 03:57:20 10° WNW 04:01:18 21° WSW 04:04:19 14° SSW visible
30 Apr 12.3 20:27:16 10° WNW 20:30:57 18° NNW 20:34:40 10° NNE visible
30 Apr 12.5 22:14:56 10° NNW 22:16:37 11° N 22:18:19 10° NNE visible
30 Apr 12.1 23:58:37 10° NNW 00:02:18 18° NNE 00:05:58 10° ENE visible
01 May 10.1 01:41:27 10° NNW 01:46:49 57° NE 01:51:12 15° SE visible
01 May 10.4 03:25:18 10° NW 03:29:52 28° WSW 03:31:45 23° SW visible
01 May 12.5 21:42:45 10° NNW 21:44:34 11° N 21:46:22 10° NNE visible
01 May 12.2 23:27:04 10° NNW 23:30:19 16° NNE 23:33:34 10° ENE visible
